Location: *
(50.6089°N, 2.2719°E)
Time: 04:25:50
(UTC+00:00)

STARLINK-59 - Pass Details

Date: 18 October 2019
Orbit: 548 x 551 km, 53.0° (Epoch: 13 November)

Event Time Altitude Azimuth Distance (km) Brightness Sun altitude
Rises 19:19:39 0° 276° (W) 2,718 8.6 -23.8°
Reaches altitude 10° 19:21:55 10° 280° (W) 1,825 7.3 -24.2°
Enters shadow 19:25:39 58° 333° (NNW) 648 4.0 -24.7°
